When you browse on this site, cookies collect data to enhance your experience and personalize the content and advertising you see.
Visit our Privacy Policy to learn more. By continuing to use the site, you agree to this use of cookies and data.
  • In Schweiz
  • Länderverzeichnis
  • Für 7 Tage
  • Wassertemperatur
  • Wetterkarte
  • Widgets
  • user-avatar
    Anmelden

    Stündliche Wetter Townsville

    Heute, 3 Juni, Mittwoch

    Zeit Temperatur Niederschläge Wind Luftdruck Luftfeuchtigkeit
    00:00 +19°C° 0 mm 3 m/S 757 mmHg 64%
    01:00 +18°C° 0 mm 3 m/S 757 mmHg 64%
    02:00 +18°C° 0 mm 3 m/S 757 mmHg 65%
    03:00 +18°C° 0 mm 3 m/S 757 mmHg 66%
    04:00 +17°C° 0 mm 3 m/S 757 mmHg 67%
    05:00 +17°C° 0 mm 3 m/S 757 mmHg 68%
    06:00 +17°C° 0 mm 3 m/S 758 mmHg 69%
    07:00 +16°C° 0 mm 3 m/S 758 mmHg 70%
    08:00 +18°C° 0 mm 3 m/S 759 mmHg 64%
    09:00 +20°C° 0 mm 3 m/S 759 mmHg 57%
    10:00 +22°C° 0 mm 3 m/S 759 mmHg 47%
    11:00 +24°C° 0 mm 3 m/S 758 mmHg 43%
    12:00 +24°C° 0 mm 3 m/S 758 mmHg 40%
    13:00 +25°C° 0 mm 3 m/S 757 mmHg 37%
    14:00 +25°C° 0 mm 3 m/S 757 mmHg 38%
    15:00 +25°C° 0 mm 3 m/S 757 mmHg 39%
    16:00 +25°C° 0 mm 3 m/S 757 mmHg 40%
    17:00 +22°C° 0 mm 3 m/S 757 mmHg 45%
    18:00 +20°C° 0 mm 3 m/S 758 mmHg 49%
    19:00 +18°C° 0 mm 3 m/S 758 mmHg 54%
    20:00 +17°C° 0 mm 3 m/S 758 mmHg 54%
    21:00 +17°C° 0 mm 3 m/S 759 mmHg 55%
    22:00 +16°C° 0 mm 3 m/S 759 mmHg 55%
    23:00 +14°C° 0 mm 3 m/S 759 mmHg 55%

    Morgen, 4 Juni, Donnerstag

    Zeit Temperatur Niederschläge Wind Luftdruck Luftfeuchtigkeit
    00:00 +14°C° 0 mm 3 m/S 758 mmHg 55%
    01:00 +14°C° 0 mm 3 m/S 758 mmHg 55%
    02:00 +13°C° 0 mm 3 m/S 758 mmHg 54%
    03:00 +13°C° 0 mm 3 m/S 758 mmHg 54%
    04:00 +12°C° 0 mm 3 m/S 758 mmHg 54%
    05:00 +12°C° 0 mm 3 m/S 758 mmHg 54%
    06:00 +12°C° 0 mm 3 m/S 759 mmHg 55%
    07:00 +11°C° 0 mm 3 m/S 759 mmHg 55%
    08:00 +13°C° 0 mm 3 m/S 759 mmHg 52%
    09:00 +17°C° 0 mm 3 m/S 759 mmHg 48%
    10:00 +19°C° 0 mm 3 m/S 759 mmHg 44%
    11:00 +20°C° 0 mm 3 m/S 759 mmHg 43%
    12:00 +21°C° 0 mm 3 m/S 759 mmHg 42%
    13:00 +23°C° 0 mm 4 m/S 758 mmHg 41%
    14:00 +23°C° 0 mm 4 m/S 758 mmHg 44%
    15:00 +23°C° 0 mm 4 m/S 757 mmHg 48%
    16:00 +23°C° 0 mm 5 m/S 757 mmHg 51%
    17:00 +21°C° 0 mm 5 m/S 757 mmHg 58%
    18:00 +20°C° 0 mm 5 m/S 758 mmHg 66%
    19:00 +17°C° 0 mm 5 m/S 758 mmHg 73%
    20:00 +18°C° 0 mm 4 m/S 759 mmHg 73%
    21:00 +18°C° 0 mm 4 m/S 759 mmHg 73%
    22:00 +19°C° 0 mm 3 m/S 759 mmHg 73%
    23:00 +18°C° 0.1 mm 4 m/S 759 mmHg 77%

    übermorgen, 5 Juni, Freitag

    Zeit Temperatur Niederschläge Wind Luftdruck Luftfeuchtigkeit
    00:00 +18°C° 0.1 mm 4 m/S 758 mmHg 80%
    01:00 +18°C° 0.1 mm 4 m/S 758 mmHg 84%
    02:00 +18°C° 0 mm 4 m/S 758 mmHg 85%
    03:00 +18°C° 0 mm 4 m/S 757 mmHg 87%
    04:00 +18°C° 0 mm 4 m/S 757 mmHg 88%
    05:00 +18°C° 0 mm 4 m/S 757 mmHg 89%
    06:00 +17°C° 0 mm 4 m/S 757 mmHg 90%
    07:00 +17°C° 0 mm 4 m/S 758 mmHg 92%
    08:00 +19°C° 0 mm 4 m/S 758 mmHg 84%
    09:00 +21°C° 0 mm 5 m/S 758 mmHg 76%
    10:00 +23°C° 0 mm 5 m/S 759 mmHg 69%
    11:00 +25°C° 0 mm 5 m/S 758 mmHg 66%
    12:00 +26°C° 0 mm 6 m/S 758 mmHg 63%
    13:00 +27°C° 0 mm 7 m/S 757 mmHg 59%
    14:00 +26°C° 0.1 mm 6 m/S 757 mmHg 64%
    15:00 +24°C° 0.1 mm 6 m/S 757 mmHg 68%
    16:00 +23°C° 0.1 mm 6 m/S 756 mmHg 72%
    17:00 +22°C° 0.1 mm 6 m/S 757 mmHg 76%
    18:00 +21°C° 0.1 mm 6 m/S 757 mmHg 80%
    19:00 +20°C° 0.1 mm 6 m/S 757 mmHg 84%
    20:00 +20°C° 0 mm 6 m/S 758 mmHg 84%
    21:00 +19°C° 0 mm 5 m/S 758 mmHg 85%
    22:00 +17°C° 0 mm 5 m/S 758 mmHg 85%
    23:00 +17°C° 0 mm 5 m/S 758 mmHg 86%

    6 Juni, Samstag

    Zeit Temperatur Niederschläge Wind Luftdruck Luftfeuchtigkeit
    00:00 +17°C° 0 mm 5 m/S 757 mmHg 87%
    01:00 +17°C° 0 mm 4 m/S 757 mmHg 88%
    02:00 +17°C° 0 mm 4 m/S 757 mmHg 88%
    03:00 +17°C° 0 mm 4 m/S 756 mmHg 89%
    04:00 +17°C° 0 mm 4 m/S 756 mmHg 89%
    05:00 +17°C° 0 mm 4 m/S 756 mmHg 90%
    06:00 +17°C° 0 mm 4 m/S 757 mmHg 92%
    07:00 +15°C° 0 mm 4 m/S 757 mmHg 93%
    08:00 +18°C° 0 mm 4 m/S 757 mmHg 85%
    09:00 +20°C° 0 mm 4 m/S 757 mmHg 77%
    10:00 +22°C° 0 mm 4 m/S 757 mmHg 69%
    11:00 +23°C° 0 mm 4 m/S 757 mmHg 68%
    12:00 +23°C° 0 mm 5 m/S 756 mmHg 67%
    13:00 +25°C° 0 mm 5 m/S 755 mmHg 66%
    14:00 +25°C° 0.1 mm 5 m/S 755 mmHg 67%
    15:00 +25°C° 0.1 mm 5 m/S 755 mmHg 67%
    16:00 +25°C° 0.1 mm 5 m/S 755 mmHg 67%
    17:00 +23°C° 0 mm 5 m/S 755 mmHg 72%
    18:00 +21°C° 0 mm 5 m/S 755 mmHg 77%
    19:00 +20°C° 0 mm 5 m/S 756 mmHg 82%
    20:00 +20°C° 0 mm 5 m/S 756 mmHg 84%
    21:00 +19°C° 0 mm 4 m/S 756 mmHg 86%
    22:00 +19°C° 0 mm 4 m/S 756 mmHg 88%
    23:00 +18°C° 0.1 mm 4 m/S 756 mmHg 89%

    7 Juni, Sonntag

    Zeit Temperatur Niederschläge Wind Luftdruck Luftfeuchtigkeit
    00:00 +18°C° 0.1 mm 4 m/S 756 mmHg 90%
    01:00 +18°C° 0.1 mm 4 m/S 755 mmHg 91%
    02:00 +18°C° 0 mm 4 m/S 755 mmHg 92%
    03:00 +17°C° 0 mm 3 m/S 755 mmHg 92%
    04:00 +17°C° 0 mm 3 m/S 755 mmHg 93%
    05:00 +17°C° 0 mm 3 m/S 755 mmHg 93%
    06:00 +17°C° 0 mm 3 m/S 755 mmHg 93%
    07:00 +17°C° 0 mm 3 m/S 756 mmHg 93%
    08:00 +19°C° 0 mm 3 m/S 756 mmHg 85%
    09:00 +20°C° 0 mm 3 m/S 756 mmHg 77%
    10:00 +22°C° 0 mm 3 m/S 756 mmHg 69%
    11:00 +24°C° 0 mm 3 m/S 756 mmHg 66%
    12:00 +25°C° 0 mm 3 m/S 755 mmHg 62%
    13:00 +26°C° 0 mm 3 m/S 755 mmHg 59%
    14:00 +26°C° 0 mm 3 m/S 755 mmHg 60%
    15:00 +26°C° 0 mm 4 m/S 755 mmHg 62%
    16:00 +25°C° 0 mm 4 m/S 754 mmHg 64%
    17:00 +23°C° 0.1 mm 4 m/S 755 mmHg 71%
    18:00 +22°C° 0.1 mm 4 m/S 755 mmHg 78%
    19:00 +21°C° 0.1 mm 5 m/S 756 mmHg 86%
    20:00 +20°C° 0.1 mm 5 m/S 756 mmHg 87%
    21:00 +20°C° 0.1 mm 5 m/S 756 mmHg 87%
    22:00 +19°C° 0.1 mm 4 m/S 756 mmHg 88%
    23:00 +19°C° 0.1 mm 4 m/S 756 mmHg 88%

    8 Juni, Montag

    Zeit Temperatur Niederschläge Wind Luftdruck Luftfeuchtigkeit
    00:00 +19°C° 0.1 mm 4 m/S 756 mmHg 89%
    01:00 +18°C° 0.1 mm 4 m/S 756 mmHg 89%
    02:00 +18°C° 0 mm 4 m/S 756 mmHg 89%
    03:00 +18°C° 0 mm 4 m/S 756 mmHg 88%
    04:00 +17°C° 0 mm 4 m/S 755 mmHg 88%
    05:00 +17°C° 0 mm 4 m/S 756 mmHg 88%
    06:00 +17°C° 0 mm 4 m/S 756 mmHg 89%
    07:00 +17°C° 0 mm 4 m/S 757 mmHg 89%
    08:00 +18°C° 0 mm 4 m/S 757 mmHg 82%
    09:00 +20°C° 0 mm 4 m/S 757 mmHg 76%
    10:00 +22°C° 0 mm 5 m/S 757 mmHg 69%
    11:00 +23°C° 0 mm 5 m/S 757 mmHg 65%
    12:00 +25°C° 0 mm 5 m/S 757 mmHg 61%
    13:00 +26°C° 0 mm 6 m/S 756 mmHg 56%
    14:00 +26°C° 0 mm 6 m/S 756 mmHg 58%
    15:00 +26°C° 0 mm 6 m/S 756 mmHg 60%
    16:00 +24°C° 0 mm 6 m/S 756 mmHg 61%
    17:00 +23°C° 0 mm 6 m/S 756 mmHg 67%
    18:00 +22°C° 0 mm 6 m/S 757 mmHg 72%
    19:00 +21°C° 0 mm 6 m/S 757 mmHg 78%
    20:00 +20°C° 0 mm 6 m/S 758 mmHg 79%
    21:00 +19°C° 0 mm 5 m/S 758 mmHg 80%
    22:00 +17°C° 0 mm 5 m/S 758 mmHg 80%
    23:00 +17°C° 0 mm 5 m/S 758 mmHg 81%
    Mehr zeigen